• In Latvia
  • List of Countries
  • For 7 days
  • Water Temperature
  • Satellite Maps
  • Weather Map
  • Weather Widgets
  • user-avatar
    Login

    Hourly Weather Salaspils

    Today, 20 June, Wednesday

    Time Temperature Precipitation Wind Pressure Humidity
    00:00 +13°C° 0 mm 4 mps 758 mmHg 84%
    01:00 +13°C° 0 mm 4 mps 759 mmHg 87%
    02:00 +12°C° 0 mm 4 mps 759 mmHg 90%
    03:00 +12°C° 0 mm 3 mps 759 mmHg 88%
    04:00 +12°C° 0 mm 3 mps 759 mmHg 86%
    05:00 +12°C° 0 mm 3 mps 759 mmHg 84%
    06:00 +14°C° 0 mm 4 mps 759 mmHg 75%
    07:00 +15°C° 0 mm 5 mps 760 mmHg 66%
    08:00 +16°C° 0 mm 5 mps 760 mmHg 57%
    09:00 +17°C° 0 mm 5 mps 760 mmHg 54%
    10:00 +19°C° 0 mm 5 mps 760 mmHg 52%
    11:00 +20°C° 0 mm 5 mps 760 mmHg 50%
    12:00 +20°C° 0 mm 5 mps 760 mmHg 48%
    13:00 +21°C° 0 mm 5 mps 760 mmHg 47%
    14:00 +21°C° 0 mm 5 mps 761 mmHg 45%
    15:00 +21°C° 0 mm 5 mps 760 mmHg 46%
    16:00 +21°C° 0 mm 5 mps 760 mmHg 46%
    17:00 +21°C° 0 mm 5 mps 760 mmHg 47%
    18:00 +20°C° 0 mm 4 mps 760 mmHg 54%
    19:00 +19°C° 0 mm 4 mps 760 mmHg 61%
    20:00 +17°C° 0 mm 3 mps 759 mmHg 67%
    21:00 +17°C° 0 mm 4 mps 759 mmHg 71%
    22:00 +15°C° 0 mm 4 mps 759 mmHg 75%
    23:00 +14°C° 0 mm 5 mps 758 mmHg 78%

    Tomorrow, 21 June, Thursday

    Time Temperature Precipitation Wind Pressure Humidity
    00:00 +15°C° 0 mm 5 mps 758 mmHg 78%
    01:00 +15°C° 0 mm 5 mps 757 mmHg 78%
    02:00 +15°C° 0 mm 5 mps 757 mmHg 78%
    03:00 +15°C° 0 mm 5 mps 757 mmHg 78%
    04:00 +16°C° 0 mm 5 mps 756 mmHg 78%
    05:00 +16°C° 0 mm 5 mps 756 mmHg 78%
    06:00 +17°C° 0 mm 5 mps 756 mmHg 76%
    07:00 +20°C° 0 mm 5 mps 756 mmHg 74%
    08:00 +21°C° 0 mm 5 mps 755 mmHg 72%
    09:00 +21°C° 0.3 mm 5 mps 755 mmHg 73%
    10:00 +22°C° 0.3 mm 5 mps 755 mmHg 74%
    11:00 +22°C° 0.3 mm 5 mps 754 mmHg 75%
    12:00 +23°C° 0.5 mm 5 mps 754 mmHg 75%
    13:00 +23°C° 0.5 mm 5 mps 753 mmHg 76%
    14:00 +23°C° 0.5 mm 4 mps 753 mmHg 76%
    15:00 +23°C° 0.5 mm 4 mps 752 mmHg 79%
    16:00 +23°C° 0.5 mm 4 mps 751 mmHg 82%
    17:00 +22°C° 0.5 mm 4 mps 751 mmHg 85%
    18:00 +21°C° 1.3 mm 4 mps 750 mmHg 88%
    19:00 +21°C° 1.3 mm 4 mps 749 mmHg 90%
    20:00 +20°C° 1.3 mm 4 mps 748 mmHg 92%
    21:00 +19°C° 1.4 mm 4 mps 748 mmHg 93%
    22:00 +18°C° 1.4 mm 4 mps 747 mmHg 95%
    23:00 +17°C° 1.4 mm 4 mps 747 mmHg 96%

    Day after tomorrow, 22 June, Friday

    Time Temperature Precipitation Wind Pressure Humidity
    00:00 +15°C° 0.2 mm 4 mps 747 mmHg 96%
    01:00 +13°C° 0.2 mm 4 mps 747 mmHg 95%
    02:00 +12°C° 0.2 mm 4 mps 747 mmHg 95%
    03:00 +12°C° 0 mm 4 mps 747 mmHg 95%
    04:00 +11°C° 0 mm 4 mps 747 mmHg 94%
    05:00 +11°C° 0 mm 4 mps 748 mmHg 94%
    06:00 +12°C° 0.1 mm 5 mps 748 mmHg 88%
    07:00 +13°C° 0.1 mm 5 mps 748 mmHg 83%
    08:00 +14°C° 0.1 mm 5 mps 748 mmHg 77%
    09:00 +15°C° 0.4 mm 6 mps 748 mmHg 74%
    10:00 +15°C° 0.4 mm 6 mps 748 mmHg 71%
    11:00 +16°C° 0.4 mm 6 mps 748 mmHg 68%
    12:00 +16°C° 0.3 mm 6 mps 749 mmHg 65%
    13:00 +16°C° 0.3 mm 6 mps 749 mmHg 62%
    14:00 +17°C° 0.3 mm 6 mps 750 mmHg 59%
    15:00 +16°C° 0.5 mm 5 mps 750 mmHg 65%
    16:00 +16°C° 0.5 mm 5 mps 751 mmHg 70%
    17:00 +15°C° 0.5 mm 4 mps 751 mmHg 76%
    18:00 +14°C° 0.2 mm 4 mps 751 mmHg 79%
    19:00 +14°C° 0.2 mm 3 mps 751 mmHg 82%
    20:00 +14°C° 0.2 mm 2 mps 752 mmHg 85%
    21:00 +13°C° 0.1 mm 2 mps 752 mmHg 89%
    22:00 +12°C° 0.1 mm 2 mps 752 mmHg 92%
    23:00 +10°C° 0.1 mm 3 mps 752 mmHg 96%

    23 June, Saturday

    Time Temperature Precipitation Wind Pressure Humidity
    00:00 +9°C° 0 mm 3 mps 752 mmHg 96%
    01:00 +9°C° 0 mm 3 mps 752 mmHg 96%
    02:00 +8°C° 0 mm 3 mps 752 mmHg 96%
    03:00 +9°C° 0 mm 3 mps 752 mmHg 96%
    04:00 +9°C° 0 mm 3 mps 752 mmHg 95%
    05:00 +9°C° 0 mm 3 mps 752 mmHg 95%
    06:00 +10°C° 0.1 mm 4 mps 753 mmHg 92%
    07:00 +11°C° 0.1 mm 4 mps 753 mmHg 89%
    08:00 +12°C° 0.1 mm 4 mps 753 mmHg 86%
    09:00 +13°C° 0.4 mm 4 mps 753 mmHg 87%
    10:00 +13°C° 0.4 mm 4 mps 753 mmHg 88%
    11:00 +13°C° 0.4 mm 4 mps 753 mmHg 90%
    12:00 +14°C° 0.4 mm 4 mps 753 mmHg 87%
    13:00 +14°C° 0.4 mm 4 mps 754 mmHg 85%
    14:00 +15°C° 0.4 mm 4 mps 754 mmHg 83%
    15:00 +15°C° 0.4 mm 4 mps 754 mmHg 83%
    16:00 +15°C° 0.4 mm 4 mps 754 mmHg 83%
    17:00 +15°C° 0.4 mm 4 mps 754 mmHg 83%
    18:00 +14°C° 0.1 mm 4 mps 755 mmHg 84%
    19:00 +13°C° 0.1 mm 4 mps 755 mmHg 85%
    20:00 +12°C° 0.1 mm 4 mps 755 mmHg 86%
    21:00 +11°C° 0 mm 3 mps 756 mmHg 89%
    22:00 +10°C° 0 mm 3 mps 756 mmHg 91%
    23:00 +9°C° 0 mm 3 mps 756 mmHg 94%

    24 June, Sunday

    Time Temperature Precipitation Wind Pressure Humidity
    00:00 +9°C° 0 mm 3 mps 756 mmHg 94%
    01:00 +8°C° 0 mm 3 mps 756 mmHg 94%
    02:00 +8°C° 0 mm 3 mps 757 mmHg 94%
    03:00 +8°C° 0 mm 3 mps 757 mmHg 93%
    04:00 +8°C° 0 mm 3 mps 757 mmHg 92%
    05:00 +9°C° 0 mm 3 mps 757 mmHg 91%
    06:00 +10°C° 0 mm 3 mps 757 mmHg 86%
    07:00 +12°C° 0 mm 3 mps 757 mmHg 80%
    08:00 +13°C° 0 mm 3 mps 757 mmHg 75%
    09:00 +16°C° 0 mm 3 mps 757 mmHg 65%
    10:00 +18°C° 0 mm 3 mps 757 mmHg 56%
    11:00 +19°C° 0 mm 3 mps 757 mmHg 46%
    12:00 +19°C° 0 mm 3 mps 757 mmHg 48%
    13:00 +19°C° 0 mm 3 mps 757 mmHg 51%
    14:00 +19°C° 0 mm 3 mps 757 mmHg 53%
    15:00 +19°C° 0 mm 3 mps 758 mmHg 52%
    16:00 +19°C° 0 mm 4 mps 758 mmHg 51%
    17:00 +19°C° 0 mm 5 mps 758 mmHg 50%
    18:00 +17°C° 0 mm 4 mps 758 mmHg 55%
    19:00 +15°C° 0 mm 4 mps 758 mmHg 60%
    20:00 +13°C° 0 mm 3 mps 758 mmHg 66%
    21:00 +12°C° 0 mm 3 mps 759 mmHg 71%
    22:00 +10°C° 0 mm 3 mps 759 mmHg 77%
    23:00 +8°C° 0 mm 2 mps 760 mmHg 83%

    25 June, Monday

    Time Temperature Precipitation Wind Pressure Humidity
    00:00 +8°C° 0 mm 3 mps 760 mmHg 84%
    01:00 +7°C° 0 mm 3 mps 760 mmHg 84%
    02:00 +7°C° 0 mm 3 mps 760 mmHg 85%
    03:00 +7°C° 0 mm 2 mps 760 mmHg 82%
    04:00 +8°C° 0 mm 2 mps 760 mmHg 80%
    05:00 +8°C° 0 mm 2 mps 760 mmHg 77%
    06:00 +10°C° 0 mm 3 mps 760 mmHg 72%
    07:00 +12°C° 0 mm 3 mps 760 mmHg 67%
    08:00 +14°C° 0 mm 3 mps 759 mmHg 62%
    09:00 +16°C° 0.2 mm 3 mps 759 mmHg 63%
    10:00 +18°C° 0.2 mm 3 mps 759 mmHg 64%
    11:00 +19°C° 0.2 mm 3 mps 759 mmHg 65%
    12:00 +19°C° 0.8 mm 3 mps 759 mmHg 71%
    13:00 +18°C° 0.8 mm 4 mps 759 mmHg 77%
    14:00 +18°C° 0.8 mm 4 mps 758 mmHg 83%
    15:00 +18°C° 1 mm 4 mps 758 mmHg 85%
    16:00 +17°C° 1 mm 3 mps 758 mmHg 86%
    17:00 +17°C° 1 mm 3 mps 758 mmHg 87%
    18:00 +16°C° 0.7 mm 3 mps 758 mmHg 89%
    19:00 +16°C° 0.7 mm 3 mps 758 mmHg 91%
    20:00 +15°C° 0.7 mm 2 mps 758 mmHg 93%
    21:00 +14°C° 0.6 mm 2 mps 758 mmHg 94%
    22:00 +14°C° 0.6 mm 2 mps 758 mmHg 95%
    23:00 +13°C° 0.6 mm 2 mps 758 mmHg 96%
    Show more